Flag for Germany Weather past 2 weeks in Sindelfingen, Baden-Württemberg, Germany

Now
73 °F

Passing clouds.


Feels Like: 76 °F
Forecast: 64 / 88 °F
Wind: 5 mph from Northwest

Location: Stuttgart-Echterdingen

Current Time: Aug 30, 2015 at 12:03:32 AM

Latest Report: Aug 29, 2015 at 11:20 PM


Visibility: N/A

Pressure: 30.12 "Hg

Humidity: 69%

Dew point: 63 °F

Location of SindelfingenLocation

Historic Weather in Sindelfingen — Graph

°F

Sindelfingen temperature yesterday

Maximum temperature yesterday: 90 °F (at 3:50 PM)
Minimum temperature yesterday: 63 °F (at 2:50 AM)
Average temperature yesterday: 76 °F

Past Weeks' High & Low Weather Summary

 TemperatureHumidityPressure
High90 °F (Aug 29, 3:50 PM)100% (Aug 15, 12:20 AM)30.27 "Hg (Aug 15, 12:20 AM)
Low48 °F (Aug 18, 5:20 AM)25% (Aug 27, 2:20 PM)29.71 "Hg (Aug 24, 1:50 PM)
Average65 °F71%30.02 "Hg
* Reported Aug 14 10:20 PM — Aug 29 10:50 PM, Sindelfingen, Weather by CustomWeather, © 2015

Note: Actual official high and low records may vary slightly from our data, if they occured in-between our weather recording intervals... More about our weather records

Advertising

Sindelfingen weather history for previous 24 hours

 ConditionsComfort  
Time TempWeatherWind HumidityBarometerVisibility
10:50 PM
Sat, Aug 29
73 °FClear.2 mph69%30.12 "Hg10 mi
10:20 PM75 °FClear.3 mph65%30.12 "Hg10 mi
9:50 PM77 °FClear.1 mph57%30.12 "Hg10 mi
9:20 PM79 °FClear.1 mph54%30.12 "Hg10 mi
8:50 PM81 °FSunny.1 mph51%30.12 "Hg10 mi
8:20 PM82 °FSunny.5 mph48%30.09 "Hg10 mi
7:50 PM84 °FSunny.7 mph45%30.09 "Hg10 mi
7:20 PM86 °FSunny.7 mph43%30.09 "Hg10 mi
6:50 PM88 °FSunny.6 mph38%30.09 "Hg10 mi
6:20 PM90 °FPassing clouds.5 mph31%30.09 "HgN/A
5:50 PM90 °FSunny.3 mph31%30.12 "Hg10 mi
5:20 PM90 °FPassing clouds.3 mph31%30.12 "HgN/A
4:50 PM90 °FPassing clouds.3 mph33%30.12 "HgN/A
4:20 PM90 °FSunny.3 mph33%30.12 "Hg10 mi
3:50 PM90 °FSunny.2 mph36%30.15 "Hg10 mi
3:20 PM88 °FSunny.3 mph35%30.15 "Hg10 mi
2:50 PM88 °FSunny.3 mph38%30.15 "Hg10 mi
2:20 PM86 °FPassing clouds.6 mph43%30.18 "HgN/A
1:50 PM86 °FSunny.3 mph43%30.18 "Hg10 mi
1:20 PM84 °FSunny.3 mph48%30.18 "Hg10 mi
12:50 PM82 °FPassing clouds.5 mph55%30.21 "HgN/A
11:50 AM79 °FSunny.3 mph61%30.21 "Hg10 mi
11:20 AM79 °FSunny.3 mph65%30.21 "Hg10 mi
10:50 AM77 °FSunny.1 mph65%30.21 "Hg10 mi
9:50 AM72 °FSunny.2 mph78%30.21 "Hg10 mi
9:20 AM70 °FSunny.2 mph83%30.21 "Hg10 mi
8:50 AM68 °FSunny.2 mph83%30.21 "Hg10 mi
7:50 AM66 °FSunny.No wind94%30.21 "Hg10 mi
7:20 AM64 °FClear.No wind94%30.21 "Hg10 mi
6:50 AM63 °FClear.1 mph100%30.21 "Hg10 mi
6:20 AM63 °FClear.1 mph100%30.21 "Hg10 mi
5:50 AM63 °FClear.1 mph94%30.21 "Hg10 mi
4:50 AM63 °FClear.2 mph94%30.21 "Hg10 mi
4:20 AM63 °FClear.5 mph94%30.21 "Hg10 mi
3:50 AM63 °FClear.1 mph94%30.21 "Hg10 mi
3:20 AM63 °FClear.1 mph94%30.21 "Hg10 mi
2:50 AM63 °FPassing clouds.5 mph94%30.21 "HgN/A
2:20 AM64 °FPassing clouds.5 mph88%30.21 "HgN/A
1:50 AM66 °FPassing clouds.2 mph88%30.21 "HgN/A
1:20 AM66 °FPassing clouds.No wind88%30.21 "HgN/A
12:50 AM66 °FPassing clouds.3 mph88%30.21 "HgN/A
12:20 AM66 °FClear.3 mph88%30.21 "Hg10 mi
Weather by CustomWeather, © 2015

See weather overviewHow to use our weather pages